User: anonymous   Login
Location: Unspecified
(0.0000°N, 0.0000°E)
Time: 02:33:39
(UTC+02:00)
Language:

Cosmos 1733 Rocket - Orbit

View from above orbital plane
View from above orbital plane
View from above satellite
View from above satellite

Ground track
Ground track

The orbit data is extracted from the following two-line orbital elements,

1 16612U 86018B   17085.91039753 +.00000097 +00000-0 +86448-5 0  9998
2 16612 082.5198 013.6225 0019182 066.7074 000.1486 14.84137571579259
Epoch (UTC): 26 March 2017 21:50:58
Eccentricity: 0.0019182
inclination: 82.5198°
perigee height: 603 km
apogee height: 630 km
right ascension of ascending node: 13.6225°
argument of perigee: 66.7074°
revolutions per day: 14.84137571
mean anomaly at epoch: 0.1486°
orbit number at epoch: 57925

The dashed part of the orbit path shows where the satellite is in the earth's shadow,  

DLR